Time,TemperatureF,DewpointF,PressureIn,WindDirection,WindDirectionDegrees,WindSpeedMPH,WindSpeedGustMPH,Humidity,HourlyPrecipIn,Conditions,Clouds,dailyrainin,SoftwareType,DateUTC
2013-04-17 00:03:00,55.0,54.0,30.55,SW,228,2.0,6.0,96,0.00,,,-99.99,,2013-04-17 04:03:00,
2013-04-17 00:13:00,55.0,54.0,30.55,SW,228,2.0,6.0,96,0.00,,,-99.99,,2013-04-17 04:13:00,
2013-04-17 00:22:00,55.0,54.0,30.55,SW,228,2.0,6.0,96,0.00,,,-99.99,,2013-04-17 04:22:00,
2013-04-17 00:33:00,55.0,54.0,30.55,SW,228,2.0,6.0,96,0.00,,,-99.99,,2013-04-17 04:33:00,
2013-04-17 00:53:00,54.0,53.0,30.55,West,274,3.0,5.0,96,0.00,,,-99.99,,2013-04-17 04:53:00,
2013-04-17 01:03:00,54.0,53.0,30.54,SSE,165,0.0,3.0,96,0.00,,,-99.99,,2013-04-17 05:03:00,
2013-04-17 01:12:00,54.0,53.0,30.54,SSE,165,0.0,3.0,96,0.00,,,-99.99,,2013-04-17 05:12:00,
2013-04-17 01:22:00,53.0,52.0,30.54,WNW,301,1.0,4.0,96,0.00,,,-99.99,,2013-04-17 05:22:00,
2013-04-17 01:32:00,53.0,52.0,30.54,West,280,4.0,6.0,96,0.00,,,-99.99,,2013-04-17 05:32:00,
2013-04-17 01:42:00,53.0,52.0,30.54,West,280,4.0,6.0,96,0.00,,,-99.99,,2013-04-17 05:42:00,
2013-04-17 01:52:00,53.0,52.0,30.54,WNW,287,3.0,5.0,96,0.00,,,-99.99,,2013-04-17 05:52:00,
2013-04-17 02:02:00,54.0,53.0,30.53,SSW,210,0.0,4.0,96,0.00,,,-99.99,,2013-04-17 06:02:00,
2013-04-17 02:12:00,54.0,53.0,30.53,SSW,210,0.0,4.0,96,0.00,,,-99.99,,2013-04-17 06:12:00,
2013-04-17 02:22:00,54.0,53.0,30.53,SSW,194,2.0,4.0,96,0.00,,,-99.99,,2013-04-17 06:22:00,
2013-04-17 02:32:00,54.0,53.0,30.53,SSE,148,0.0,6.0,96,0.00,,,-99.99,,2013-04-17 06:32:00,
2013-04-17 02:42:00,54.0,53.0,30.53,SSE,148,0.0,6.0,96,0.00,,,-99.99,,2013-04-17 06:42:00,
2013-04-17 02:52:00,54.0,53.0,30.53,SSE,159,2.0,4.0,96,0.00,,,-99.99,,2013-04-17 06:52:00,
2013-04-17 03:02:00,54.0,53.0,30.53,SE,129,0.0,3.0,96,0.00,,,-99.99,,2013-04-17 07:02:00,
2013-04-17 03:12:00,54.0,53.0,30.53,SE,129,0.0,3.0,96,0.00,,,-99.99,,2013-04-17 07:12:00,
2013-04-17 03:22:00,54.0,53.0,30.53,SW,236,3.0,3.0,96,0.00,,,-99.99,,2013-04-17 07:22:00,
2013-04-17 03:32:00,54.0,53.0,30.53,WNW,285,4.0,6.0,96,0.00,,,-99.99,,2013-04-17 07:32:00,
2013-04-17 03:42:00,54.0,53.0,30.53,WNW,285,4.0,6.0,96,0.00,,,-99.99,,2013-04-17 07:42:00,
2013-04-17 03:52:00,54.0,53.0,30.53,West,281,1.0,6.0,96,0.00,,,-99.99,,2013-04-17 07:52:00,
2013-04-17 04:02:00,54.0,53.0,30.53,West,281,1.0,6.0,96,0.00,,,-99.99,,2013-04-17 08:02:00,
2013-04-17 04:12:00,54.0,53.0,30.53,West,281,1.0,6.0,96,0.00,,,-99.99,,2013-04-17 08:12:00,
2013-04-17 04:22:00,54.0,53.0,30.53,WNW,295,1.0,4.0,96,0.00,,,-99.99,,2013-04-17 08:22:00,
2013-04-17 04:32:00,53.0,52.0,30.53,WNW,287,3.0,5.0,96,0.00,,,-99.99,,2013-04-17 08:32:00,
2013-04-17 04:42:00,53.0,52.0,30.53,WNW,287,3.0,5.0,96,0.00,,,-99.99,,2013-04-17 08:42:00,
2013-04-17 04:52:00,53.0,52.0,30.53,WNW,287,3.0,5.0,96,0.00,,,-99.99,,2013-04-17 08:52:00,
2013-04-17 05:02:00,53.0,52.0,30.54,NNW,345,2.0,4.0,96,0.00,,,-99.99,,2013-04-17 09:02:00,
2013-04-17 05:12:00,53.0,52.0,30.54,NNW,345,2.0,4.0,96,0.00,,,-99.99,,2013-04-17 09:12:00,
2013-04-17 05:22:00,53.0,52.0,30.55,NE,52,4.0,9.0,96,0.00,,,-99.99,,2013-04-17 09:22:00,
2013-04-17 05:33:00,53.0,52.0,30.55,NE,52,4.0,9.0,96,0.00,,,-99.99,,2013-04-17 09:33:00,
2013-04-17 05:42:00,53.0,52.0,30.55,NE,52,4.0,9.0,96,0.00,,,-99.99,,2013-04-17 09:42:00,
2013-04-17 05:52:00,53.0,52.0,30.55,NE,52,4.0,9.0,96,0.00,,,-99.99,,2013-04-17 09:52:00,
2013-04-17 06:02:00,52.0,51.0,30.53,NE,48,4.0,8.0,96,0.00,,,-99.99,,2013-04-17 10:02:00,
2013-04-17 06:12:00,52.0,51.0,30.53,NE,48,4.0,8.0,96,0.00,,,-99.99,,2013-04-17 10:12:00,
2013-04-17 06:23:00,52.0,51.0,30.52,NNE,23,5.0,6.0,96,0.01,,,-99.99,,2013-04-17 10:23:00,
2013-04-17 06:32:00,52.0,51.0,30.52,NNE,23,5.0,6.0,96,0.01,,,-99.99,,2013-04-17 10:32:00,
2013-04-17 06:42:00,52.0,51.0,30.52,NNE,23,5.0,6.0,96,0.01,,,-99.99,,2013-04-17 10:42:00,
2013-04-17 06:53:00,52.0,51.0,30.53,NW,316,3.0,5.0,95,0.01,,,-99.99,,2013-04-17 10:53:00,
2013-04-17 07:02:00,53.0,52.0,30.53,East,87,0.0,5.0,95,0.01,,,-99.99,,2013-04-17 11:02:00,
2013-04-17 07:12:00,53.0,52.0,30.53,East,87,0.0,5.0,95,0.01,,,-99.99,,2013-04-17 11:12:00,
2013-04-17 07:22:00,53.0,52.0,30.54,NNW,347,3.0,4.0,95,0.00,,,-99.99,,2013-04-17 11:22:00,
2013-04-17 07:32:00,53.0,52.0,30.54,NNW,347,3.0,4.0,95,0.00,,,-99.99,,2013-04-17 11:32:00,
2013-04-17 07:42:00,53.0,52.0,30.54,NNW,347,3.0,4.0,95,0.00,,,-99.99,,2013-04-17 11:42:00,
2013-04-17 07:52:00,51.0,50.0,30.55,NW,312,2.0,5.0,97,0.06,,,-99.99,,2013-04-17 11:52:00,
2013-04-17 08:02:00,51.0,50.0,30.55,NW,312,2.0,5.0,97,0.06,,,-99.99,,2013-04-17 12:02:00,
2013-04-17 08:12:00,51.0,50.0,30.55,NW,312,2.0,5.0,97,0.06,,,-99.99,,2013-04-17 12:12:00,
2013-04-17 08:20:00,52.0,51.0,30.54,NE,44,0.0,0.0,96,0.09,,,-99.99,,2013-04-17 12:20:00,
2013-04-17 08:22:00,51.0,50.0,30.53,ESE,104,5.0,7.0,97,0.12,,,-99.99,,2013-04-17 12:22:00,
2013-04-17 08:32:00,51.0,50.0,30.53,ESE,104,5.0,7.0,97,0.12,,,-99.99,,2013-04-17 12:32:00,
2013-04-17 08:42:00,51.0,50.0,30.53,ESE,104,5.0,7.0,97,0.12,,,-99.99,,2013-04-17 12:42:00,
2013-04-17 08:52:00,52.0,51.0,30.54,NE,44,0.0,0.0,96,0.09,,,-99.99,,2013-04-17 12:52:00,
2013-04-17 09:02:00,52.0,51.0,30.54,NE,44,0.0,0.0,96,0.09,,,-99.99,,2013-04-17 13:02:00,
2013-04-17 09:12:00,52.0,51.0,30.54,NE,44,0.0,0.0,96,0.09,,,-99.99,,2013-04-17 13:12:00,
2013-04-17 09:52:00,57.0,55.0,30.55,NNW,333,1.0,2.0,92,0.00,,,-99.99,,2013-04-17 13:52:00,
2013-04-17 10:02:00,57.0,55.0,30.55,North,6,2.0,3.0,93,0.00,,,-99.99,,2013-04-17 14:02:00,
2013-04-17 10:12:00,57.0,55.0,30.55,North,6,2.0,3.0,93,0.00,,,-99.99,,2013-04-17 14:12:00,
2013-04-17 10:22:00,56.0,54.0,30.56,NW,316,3.0,4.0,93,0.00,,,-99.99,,2013-04-17 14:22:00,
2013-04-17 10:32:00,53.0,52.0,30.55,NNE,30,2.0,6.0,96,0.06,,,-99.99,,2013-04-17 14:32:00,
2013-04-17 10:42:00,53.0,52.0,30.55,NNE,30,2.0,6.0,96,0.06,,,-99.99,,2013-04-17 14:42:00,
2013-04-17 10:52:00,53.0,52.0,30.55,NNE,30,2.0,6.0,96,0.06,,,-99.99,,2013-04-17 14:52:00,
2013-04-17 11:02:00,53.0,52.0,30.58,NNW,343,5.0,9.0,96,0.06,,,-99.99,,2013-04-17 15:02:00,
2013-04-17 11:12:00,52.0,51.0,30.55,SW,228,3.0,5.0,96,0.10,,,-99.99,,2013-04-17 15:12:00,
2013-04-17 11:22:00,52.0,51.0,30.55,SW,228,3.0,5.0,96,0.10,,,-99.99,,2013-04-17 15:22:00,
2013-04-17 11:33:00,52.0,51.0,30.55,SW,228,3.0,5.0,96,0.10,,,-99.99,,2013-04-17 15:33:00,
2013-04-17 11:43:00,52.0,51.0,30.55,SW,228,3.0,5.0,96,0.10,,,-99.99,,2013-04-17 15:43:00,
2013-04-17 11:53:00,53.0,52.0,30.56,East,87,2.0,3.0,96,0.09,,,-99.99,,2013-04-17 15:53:00,
2013-04-17 12:03:00,53.0,52.0,30.56,East,87,2.0,3.0,96,0.09,,,-99.99,,2013-04-17 16:03:00,
2013-04-17 12:12:00,53.0,52.0,30.56,East,87,2.0,3.0,96,0.09,,,-99.99,,2013-04-17 16:12:00,
2013-04-17 12:23:00,53.0,52.0,30.56,East,87,2.0,3.0,96,0.09,,,-99.99,,2013-04-17 16:23:00,
2013-04-17 12:32:00,54.0,52.0,30.56,NE,55,2.0,5.0,93,0.06,,,-99.99,,2013-04-17 16:32:00,
2013-04-17 12:42:00,54.0,52.0,30.56,NE,55,2.0,5.0,93,0.06,,,-99.99,,2013-04-17 16:42:00,
2013-04-17 12:52:00,55.0,54.0,30.56,NW,304,6.0,7.0,95,0.04,,,-99.99,,2013-04-17 16:52:00,
2013-04-17 13:02:00,56.0,55.0,30.57,North,10,1.0,2.0,95,0.01,,,-99.99,,2013-04-17 17:02:00,
2013-04-17 13:12:00,56.0,55.0,30.57,North,10,1.0,2.0,95,0.01,,,-99.99,,2013-04-17 17:12:00,
2013-04-17 13:22:00,57.0,56.0,30.55,East,82,3.0,4.0,95,0.00,,,-99.99,,2013-04-17 17:22:00,
2013-04-17 13:33:00,57.0,56.0,30.56,NW,316,3.0,7.0,95,0.00,,,-99.99,,2013-04-17 17:33:00,
2013-04-17 13:40:00,56.0,55.0,30.55,NNE,14,5.0,7.0,95,0.00,,,-99.99,,2013-04-17 17:40:00,
2013-04-17 13:42:00,57.0,56.0,30.56,NW,316,3.0,7.0,95,0.00,,,-99.99,,2013-04-17 17:42:00,
2013-04-17 13:52:00,57.0,56.0,30.56,NW,316,3.0,7.0,95,0.00,,,-99.99,,2013-04-17 17:52:00,
2013-04-17 14:02:00,56.0,55.0,30.55,NNE,14,5.0,7.0,95,0.00,,,-99.99,,2013-04-17 18:02:00,
2013-04-17 14:12:00,56.0,55.0,30.55,NNE,14,5.0,7.0,95,0.00,,,-99.99,,2013-04-17 18:12:00,
2013-04-17 14:22:00,56.0,55.0,30.55,NNE,14,5.0,7.0,95,0.00,,,-99.99,,2013-04-17 18:22:00,
2013-04-17 14:32:00,56.0,55.0,30.55,NNE,14,5.0,7.0,95,0.00,,,-99.99,,2013-04-17 18:32:00,
2013-04-17 15:20:00,58.0,55.0,30.52,NNW,335,3.0,4.0,91,0.00,,,-99.99,,2013-04-17 19:20:00,
2013-04-17 15:42:00,58.0,55.0,30.52,NNW,335,3.0,4.0,91,0.00,,,-99.99,,2013-04-17 19:42:00,
2013-04-17 15:52:00,58.0,55.0,30.52,NNW,335,3.0,4.0,91,0.00,,,-99.99,,2013-04-17 19:52:00,
2013-04-17 16:03:00,58.0,55.0,30.52,NNW,335,3.0,4.0,91,0.00,,,-99.99,,2013-04-17 20:03:00,
2013-04-17 16:12:00,58.0,55.0,30.52,NNW,335,3.0,4.0,91,0.00,,,-99.99,,2013-04-17 20:12:00,
2013-04-17 16:52:00,60.0,55.0,30.47,West,277,5.0,7.0,83,0.00,,,-99.99,,2013-04-17 20:52:00,
2013-04-17 17:03:00,60.0,55.0,30.47,West,277,5.0,7.0,83,0.00,,,-99.99,,2013-04-17 21:03:00,
2013-04-17 17:12:00,60.0,55.0,30.47,West,277,5.0,7.0,83,0.00,,,-99.99,,2013-04-17 21:12:00,
2013-04-17 17:22:00,61.0,55.0,30.47,SSW,211,0.0,4.0,82,0.00,,,-99.99,,2013-04-17 21:22:00,
2013-04-17 17:33:00,61.0,55.0,30.47,SSW,211,0.0,4.0,82,0.00,,,-99.99,,2013-04-17 21:33:00,
2013-04-17 17:43:00,61.0,55.0,30.47,West,280,2.0,8.0,82,0.00,,,-99.99,,2013-04-17 21:43:00,
2013-04-17 17:53:00,61.0,55.0,30.47,West,280,2.0,8.0,82,0.00,,,-99.99,,2013-04-17 21:53:00,
2013-04-17 18:02:00,61.0,55.0,30.47,WNW,297,6.0,9.0,81,0.00,,,-99.99,,2013-04-17 22:02:00,
2013-04-17 18:13:00,61.0,55.0,30.48,SE,146,0.0,2.0,82,0.00,,,-99.99,,2013-04-17 22:13:00,
2013-04-17 18:22:00,61.0,55.0,30.48,SE,146,0.0,2.0,82,0.00,,,-99.99,,2013-04-17 22:22:00,
2013-04-17 18:33:00,61.0,55.0,30.48,SE,146,0.0,2.0,82,0.00,,,-99.99,,2013-04-17 22:33:00,
2013-04-17 18:42:00,61.0,55.0,30.47,SSW,210,0.0,4.0,80,0.00,,,-99.99,,2013-04-17 22:42:00,
2013-04-17 18:53:00,61.0,55.0,30.47,SSW,210,0.0,4.0,80,0.00,,,-99.99,,2013-04-17 22:53:00,
2013-04-17 19:02:00,60.0,55.0,30.47,SE,146,4.0,4.0,84,0.00,,,-99.99,,2013-04-17 23:02:00,
2013-04-17 19:12:00,59.0,56.0,30.47,SE,131,6.0,9.0,91,0.00,,,-99.99,,2013-04-17 23:12:00,
2013-04-17 19:22:00,59.0,56.0,30.47,SE,131,6.0,9.0,91,0.00,,,-99.99,,2013-04-17 23:22:00,
2013-04-17 19:32:00,59.0,57.0,30.47,South,177,5.0,9.0,94,0.00,,,-99.99,,2013-04-17 23:32:00,
2013-04-17 19:42:00,58.0,57.0,30.47,SSE,163,4.0,12.0,96,0.00,,,-99.99,,2013-04-17 23:42:00,
2013-04-17 19:52:00,58.0,57.0,30.47,SSE,163,4.0,12.0,96,0.00,,,-99.99,,2013-04-17 23:52:00,
2013-04-17 20:02:00,58.0,57.0,30.47,SSE,163,4.0,12.0,96,0.00,,,-99.99,,2013-04-18 00:02:00,
2013-04-17 20:12:00,56.0,55.0,30.47,South,188,7.0,8.0,96,0.00,,,-99.99,,2013-04-18 00:12:00,
2013-04-17 20:20:00,56.0,55.0,30.47,SE,141,6.0,10.0,97,0.00,,,-99.99,,2013-04-18 00:20:00,
2013-04-17 20:22:00,56.0,55.0,30.47,South,188,7.0,8.0,96,0.00,,,-99.99,,2013-04-18 00:22:00,
2013-04-17 20:32:00,56.0,55.0,30.47,South,177,6.0,10.0,97,0.00,,,-99.99,,2013-04-18 00:32:00,
2013-04-17 20:43:00,56.0,55.0,30.47,SE,141,6.0,10.0,97,0.00,,,-99.99,,2013-04-18 00:43:00,
2013-04-17 20:52:00,56.0,55.0,30.47,SE,141,6.0,10.0,97,0.00,,,-99.99,,2013-04-18 00:52:00,
2013-04-17 21:02:00,56.0,55.0,30.47,SE,141,6.0,10.0,97,0.00,,,-99.99,,2013-04-18 01:02:00,
2013-04-17 21:12:00,56.0,55.0,30.47,SE,141,6.0,10.0,97,0.00,,,-99.99,,2013-04-18 01:12:00,
2013-04-17 21:32:00,55.0,54.0,30.49,NE,44,3.0,8.0,96,0.00,,,-99.99,,2013-04-18 01:32:00,
2013-04-17 21:42:00,55.0,54.0,30.49,SSE,163,5.0,8.0,96,0.00,,,-99.99,,2013-04-18 01:42:00,
2013-04-17 21:52:00,55.0,54.0,30.49,SSE,163,5.0,8.0,96,0.00,,,-99.99,,2013-04-18 01:52:00,
2013-04-17 22:00:00,55.0,54.0,30.50,SE,138,3.0,7.0,95,0.00,,,-99.99,,2013-04-18 02:00:00,
2013-04-17 22:02:00,55.0,54.0,30.49,SSE,163,5.0,8.0,96,0.00,,,-99.99,,2013-04-18 02:02:00,
2013-04-17 22:12:00,55.0,54.0,30.50,SE,138,3.0,7.0,95,0.00,,,-99.99,,2013-04-18 02:12:00,
2013-04-17 22:22:00,55.0,54.0,30.50,SE,138,3.0,7.0,95,0.00,,,-99.99,,2013-04-18 02:22:00,
2013-04-17 22:32:00,55.0,54.0,30.50,SE,138,3.0,7.0,95,0.00,,,-99.99,,2013-04-18 02:32:00,
2013-04-17 22:42:00,55.0,54.0,30.50,SE,138,3.0,7.0,95,0.00,,,-99.99,,2013-04-18 02:42:00,
2013-04-17 22:52:00,55.0,54.0,30.50,SE,138,3.0,7.0,95,0.00,,,-99.99,,2013-04-18 02:52:00,
2013-04-17 23:12:00,54.0,53.0,30.48,SW,225,4.0,4.0,96,0.00,,,-99.99,,2013-04-18 03:12:00,
2013-04-17 23:20:00,55.0,54.0,30.48,South,181,8.0,8.0,95,0.00,,,-99.99,,2013-04-18 03:20:00,
2013-04-17 23:22:00,54.0,53.0,30.48,SW,225,4.0,4.0,96,0.00,,,-99.99,,2013-04-18 03:22:00,
2013-04-17 23:33:00,54.0,53.0,30.48,SSW,201,6.0,6.0,96,0.00,,,-99.99,,2013-04-18 03:33:00,
2013-04-17 23:43:00,55.0,54.0,30.48,South,181,8.0,8.0,95,0.00,,,-99.99,,2013-04-18 03:43:00,
2013-04-17 23:53:00,55.0,54.0,30.48,South,181,8.0,8.0,95,0.00,,,-99.99,,2013-04-18 03:53:00,